Regional Weather Roundup
Issued by NWS

Home | Current Version | Previous Version | Text Only | Print | Product List | Glossary Off
Versions: 1 2 3 4 5 6 7 8 9 10 11 12 13 14 15 16 17 18 19 20 21 22 23 24 25 26 27 28 29 30 31 32 33 34 35 36 37 38 39 40 41 42 43 44 45 46 47 48 49 50

000
ASUS43 KBIS 301502
RWRND

NORTH DAKOTA REGIONAL WEATHER ROUNDUP
NATIONAL WEATHER SERVICE BISMARCK ND
1000 AM CDT THU JUL 30 2015

NOTE: "FAIR" INDICATES FEW OR NO CLOUDS BELOW 12,000 FEET WITH NO
SIGNIFICANT WEATHER AND/OR OBSTRUCTIONS TO VISIBILITY.


NDZ001>003-009>011-017-301600-
NORTHWEST NORTH DAKOTA

CITY           SKY/WX    TMP DP  RH WIND       PRES   REMARKS
WILLISTON      SUNNY     70  52  52 VRB5      30.19R
MINOT          SUNNY     72  51  47 W17       30.12R
MINOT AFB      SUNNY     71  55  56 NW15      30.10S
$$

NDZ018>021-031>035-040>046-301600-
SOUTHWEST NORTH DAKOTA

CITY           SKY/WX    TMP DP  RH WIND       PRES   REMARKS
BISMARCK       SUNNY     71  54  54 W3        30.15S
DICKINSON      SUNNY     72  47  40 NW10      30.18R
GARRISON         N/A     70  55  59 NW8       30.15R
HETTINGER ARPT SUNNY     74  45  35 W8        30.22R
$$

NDZ004>008-012>016-024-026-027-054-301600-
NORTHEAST NORTH DAKOTA

CITY           SKY/WX    TMP DP  RH WIND       PRES   REMARKS
GRAND FORKS    MOSUNNY   73  56  54 W14       30.00S
GRND FRKS AFB  MOSUNNY   74  57  55 NW16G22   30.01S
DEVILS LAKE    CLOUDY    70  52  52 W15G21    30.05R
$$

NDZ022-023-025-028>030-036>039-047>053-301600-
SOUTHEAST NORTH DAKOTA

CITY           SKY/WX    TMP DP  RH WIND       PRES   REMARKS
FARGO          MOSUNNY   73  57  57 NW13      30.06R
JAMESTOWN      MOSUNNY   70  55  59 NW9       30.11S
$$



USA.gov is the U.S. government's official web portal to all federal, state and local government web resources and services.